This demonstration page uses our WeatherBlox Daily Observations layout. Learn more.

Left ArrowRight Arrow

Hourly Observations for March 14, 2020

Temp ( °F °C ) Dew Point ( °F °C ) Humidity (%) Winds ( mph kmh ) Pressure ( in mb ) Visibility ( mi km ) Precip ( " mm )
12:15 am 00:15 Clear 40 4.4 27 -2.6 61 61 N N/A 30.44 1031 10 16 N/A
12:35 am 00:35 Clear 39 3.8 28 -2.4 64 64 N N/A 30.43 1031 10 16 N/A
12:55 am 00:55 Clear 39 3.8 27 -2.9 62 62 N N/A 30.43 1031 10 16 N/A
1:15 am 01:15 Clear 37 2.5 28 -2.1 72 72 N N/A 30.44 1031 10 16 N/A
1:35 am 01:35 Clear 37 2.7 29 -1.5 74 74 N N/A 30.44 1031 10 16 N/A
1:55 am 01:55 Clear 35 1.6 29 -1.5 80 80 N N/A 30.46 1031 10 16 N/A
2:15 am 02:15 Clear 36 2.2 28 -2.1 74 74 N N/A 30.46 1031 10 16 N/A
2:35 am 02:35 Clear 35 1.5 30 -0.9 84 84 N N/A 30.46 1031 10 16 N/A
2:55 am 02:55 Clear 35 1.6 30 -1.2 82 82 N N/A 30.47 1032 10 16 N/A
3:10 am 03:10 Clear 35 1.6 30 -1.2 82 82 N N/A 30.45 1031 10 16 N/A
3:30 am 03:30 Partly Cloudy 40 4.3 27 -2.7 61 61 N N/A 30.44 1031 10 16 N/A
3:55 am 03:55 Mostly Cloudy 40 4.2 27 -2.6 62 62 N N/A 30.45 1031 10 16 N/A
4:20 am 04:20 Cloudy 40 4.3 28 -2 64 64 N N/A 30.44 1031 10 16 N/A
4:35 am 04:35 Cloudy 40 4.3 28 -2.1 63 63 N N/A 30.43 1030 10 16 N/A
4:55 am 04:55 Cloudy 40 4.5 27 -2.6 60 60 NE 6 9 30.43 1030 10 16 N/A
5:15 am 05:15 Cloudy 40 4.5 26 -3.1 58 58 N N/A 30.42 1030 10 16 N/A
5:35 am 05:35 Cloudy 40 4.5 27 -3 59 59 N N/A 30.43 1030 10 16 N/A
5:55 am 05:55 Cloudy 40 4.3 27 -2.8 60 60 N N/A 30.42 1030 10 16 N/A
6:15 am 06:15 Cloudy 40 4.3 27 -2.8 60 60 N N/A 30.43 1030 10 16 N/A
6:40 am 06:40 Cloudy 40 4.2 27 -2.7 61 61 N N/A 30.44 1031 10 16 N/A
6:55 am 06:55 Cloudy 40 4.2 27 -2.6 62 62 N N/A 30.44 1031 10 16 N/A
7:15 am 07:15 Cloudy 39 4.1 27 -2.8 61 61 N N/A 30.43 1030 10 16 N/A
7:35 am 07:35 Cloudy 39 4.1 27 -2.8 61 61 NE 9 15 30.43 1030 10 16 N/A
7:55 am 07:55 Cloudy 40 4.2 26 -3.1 59 59 N N/A 30.44 1031 10 16 N/A
10:15 am 10:15 Cloudy 40 4.5 26 -3.1 58 58 ENE 8 13 30.47 1032 10 16 N/A
10:35 am 10:35 Cloudy 40 4.7 25 -3.8 54 54 E 8 13 30.49 1032 10 16 N/A
10:55 am 10:55 Cloudy 40 4.7 25 -4.1 53 53 ESE 7 11 30.48 1032 10 16 N/A
11:15 am 11:15 Cloudy 39 3.7 26 -3.6 59 59 E 8 13 30.48 1032 10 16 N/A
11:35 am 11:35 Cloudy 38 3.1 27 -2.9 65 65 E 8 13 30.46 1032 5 8 N/A
12:15 pm 12:15 Cloudy 33 0.7 31 -0.5 92 92 ENE 12 19 30.46 1032 3 5 N/A
12:35 pm 12:35 Cloudy 32 0.2 32 -0.1 98 98 N N/A 30.49 1033 2 3 N/A
12:55 pm 12:55 Cloudy 32 0.2 32 undefined 99 99 N N/A 30.48 1032 2 3 N/A
1:15 pm 13:15 Cloudy 32 undefined 32 undefined 100 100 N N/A 30.48 1032 2 3 N/A
1:35 pm 13:35 Cloudy 32 undefined 32 undefined 100 100 NE 9 15 30.47 1032 4 6 N/A
1:55 pm 13:55 Cloudy 32 undefined 32 undefined 100 100 ENE 8 13 30.45 1031 3 5 N/A
2:15 pm 14:15 Cloudy 32 undefined 32 undefined 100 100 ENE 10 17 30.45 1031 4 6 N/A
2:35 pm 14:35 Cloudy 32 undefined 32 -0.1 99 99 ENE 10 17 30.44 1031 5 8 N/A
2:55 pm 14:55 Cloudy 32 undefined 32 -0.1 99 99 ENE 8 13 30.46 1032 4 6 N/A
3:15 pm 15:15 Cloudy 32 0.1 32 undefined 99 99 ENE 12 19 30.44 1031 3 5 N/A
3:35 pm 15:35 Cloudy 32 0.1 32 -0.1 99 99 ENE 8 13 30.42 1030 4 6 N/A
3:55 pm 15:55 Cloudy 32 0.2 32 undefined 99 99 ENE 13 20 30.41 1030 5 8 N/A
4:15 pm 16:15 Cloudy 33 0.3 32 undefined 98 98 NE 10 17 30.41 1030 7 11 N/A
4:35 pm 16:35 Cloudy 33 0.5 32 undefined 96 96 NE 10 17 30.42 1030 7 11 N/A
4:55 pm 16:55 Cloudy 33 0.4 32 undefined 97 97 NE 12 19 30.43 1031 5 8 N/A
5:15 pm 17:15 Cloudy 33 0.5 32 undefined 96 96 NE 8 13 30.43 1031 5 8 N/A
5:35 pm 17:35 Cloudy 32 0.2 32 undefined 99 99 E 9 15 30.38 1029 2 2 N/A
5:55 pm 17:55 Cloudy 33 0.5 32 undefined 96 96 E 8 13 30.36 1028 5 8 N/A
6:15 pm 18:15 Cloudy 33 0.6 32 0.1 97 97 E 9 15 30.36 1028 10 16 N/A
6:35 pm 18:35 Cloudy 33 0.6 32 undefined 96 96 ENE 9 15 30.39 1029 10 16 N/A
6:55 pm 18:55 Cloudy 33 0.8 32 undefined 94 94 NE 7 11 30.41 1030 10 16 N/A
7:15 pm 19:15 Cloudy 33 0.8 32 undefined 94 94 NNE 9 15 30.43 1031 10 16 N/A
7:35 pm 19:35 Cloudy 34 1 32 undefined 93 93 NNE 10 17 30.46 1032 10 16 N/A
7:55 pm 19:55 Cloudy 34 0.9 32 0.1 94 94 NNE 8 13 30.47 1032 3 5 N/A
8:15 pm 20:15 Cloudy 33 0.7 33 0.3 97 97 N N/A 30.47 1032 4 6 N/A
8:35 pm 20:35 Cloudy 33 0.6 32 0.2 97 97 NE 10 17 30.48 1032 4 6 N/A
8:55 pm 20:55 Cloudy 33 0.5 32 0.1 97 97 NE 13 20 30.47 1032 7 11 N/A
9:15 pm 21:15 Cloudy 33 0.5 32 undefined 96 96 NE 9 15 30.48 1032 10 16 N/A
9:35 pm 21:35 Cloudy 33 0.5 32 undefined 96 96 NE 8 13 30.48 1032 10 16 N/A
9:55 pm 21:55 Cloudy 33 0.5 32 undefined 96 96 NE 6 9 30.47 1032 10 16 N/A
10:15 pm 22:15 Cloudy 33 0.5 32 undefined 96 96 NE 9 15 30.48 1032 10 16 N/A
10:35 pm 22:35 Cloudy 33 0.5 32 undefined 96 96 NE 8 13 30.48 1032 10 16 N/A
10:55 pm 22:55 Cloudy 33 0.5 32 -0.2 95 95 NE 12 19 30.47 1032 10 16 N/A
11:15 pm 23:15 Cloudy 33 0.3 31 -0.5 94 94 NE 12 19 30.48 1032 10 16 N/A
11:35 pm 23:35 Cloudy 32 0.2 31 -0.3 96 96 NNE 9 15 30.48 1032 7 11 N/A
11:55 pm 23:55 Cloudy 32 0.1 31 -0.4 96 96 NNE 13 20 30.48 1032 10 16 N/A

Powered by AerisWeather